MPEC 2001-F07 : 2001 EC16
The following Minor Planet Electronic Circular may be linked-to from your own Web pages, but must not otherwise be redistributed electronically.A form allowing access to any MPEC is at the bottom of this page.


M.P.E.C. 2001-F07 Issued 2001 Mar. 18, 21:29 UT The Minor Planet Electronic Circulars contain information on unusual minor planets and routine data on comets. They are published on behalf of Commission 20 of the International Astronomical Union by the Minor Planet Center, Smithsonian Astrophysical Observatory, Cambridge, MA 02138, U.S.A. Prepared using the Tamkin Foundation Computer Network MPC@CFA.HARVARD.EDU URL http://cfa-www.harvard.edu/iau/mpc.html ISSN 1523-6714 2001 EC16 Observations: K01E16C* C2001 03 15.53677 11 32 04.97 +01 11 22.6 16.0 608 K01E16C C2001 03 15.54718 11 32 06.67 +01 12 11.0 16.0 608 K01E16C C2001 03 15.55788 11 32 08.47 +01 13 00.8 16.0 608 K01E16C C2001 03 15.84478 11 33 27.07 +01 34 51.4 557 K01E16C C2001 03 15.84590 11 33 27.29 +01 34 57.1 557 K01E16C C2001 03 15.84734 11 33 27.57 +01 35 04.2 557 K01E16C C2001 03 15.84846 11 33 27.80 +01 35 10.1 557 K01E16C C2001 03 15.84958 11 33 28.01 +01 35 15.6 557 K01E16C C2001 03 15.91425 11 33 42.91 +01 41 00.9 15.4 R 165 K01E16C C2001 03 15.92472 11 33 44.87 +01 41 54.4 15.5 R 165 K01E16C C2001 03 15.93057 11 33 46.01 +01 42 24.5 165 K01E16C C2001 03 15.93244 11 33 46.34 +01 42 34.2 165 K01E16C C2001 03 16.06727 11 34 21.55 +01 58 09.2 15.8 R 844 K01E16C C2001 03 16.07021 11 34 22.03 +01 58 23.9 15.6 R 844 K01E16C C2001 03 16.07498 11 34 22.98 +01 58 50.4 15.6 R 844 K01E16C C2001 03 16.08060 11 34 23.95 +01 59 19.8 15.4 R 844 K01E16C C2001 03 16.08632 11 34 25.05 +01 59 50.4 16.0 R 844 K01E16C C2001 03 16.21174 11 34 58.78 +02 07 34.9 15.7 854 K01E16C C2001 03 16.21270 11 34 58.96 +02 07 40.6 15.7 854 K01E16C C2001 03 16.21367 11 34 59.18 +02 07 46.7 15.6 854 K01E16C C2001 03 16.53090 11 36 22.02 +02 41 21.5 16.7 R 428 K01E16C C2001 03 16.53336 11 36 22.45 +02 41 36.0 16.7 R 428 K01E16C C2001 03 16.54163 11 36 24.28 +02 42 26.3 16.6 R 428 K01E16C C2001 03 16.57378 11 36 21.14 +02 42 48.9 17.7 608 K01E16C C2001 03 16.57982 11 36 22.52 +02 43 25.4 17.6 608 K01E16C C2001 03 16.58457 11 36 23.67 +02 43 52.8 18.0 608 K01E16C C2001 03 16.59048 11 36 25.06 +02 44 29.0 17.4 608 K01E16C C2001 03 16.59533 11 36 26.25 +02 44 58.1 17.7 608 K01E16C C2001 03 16.60166 11 36 27.78 +02 45 36.6 17.5 608 K01E16C C2001 03 16.61759 11 36 47.65 +02 50 16.5 322 K01E16C C2001 03 16.61978 11 36 48.13 +02 50 33.0 322 K01E16C C2001 03 16.63478 11 36 51.43 +02 52 04.4 322 K01E16C C2001 03 16.77970 11 37 39.58 +03 02 38.1 046 K01E16C C2001 03 16.78138 11 37 40.05 +03 02 48.9 046 K01E16C C2001 03 16.78193 11 37 40.19 +03 02 52.6 15.5 R 046 K01E16C C2001 03 16.78251 11 37 40.36 +03 02 56.1 046 K01E16C C2001 03 16.78377 11 37 40.70 +03 03 04.3 046 K01E16C C2001 03 16.90175 11 38 14.50 +03 16 08.9 15.6 R 165 K01E16C C2001 03 16.90255 11 38 14.69 +03 16 14.2 15.7 R 165 K01E16C C2001 03 16.90418 11 38 15.11 +03 16 25.2 15.6 R 165 K01E16C C2001 03 16.90549 11 38 12.48 +03 16 16.0 118 K01E16C C2001 03 16.90549 11 38 15.44 +03 16 34.2 15.7 R 165 K01E16C C2001 03 16.90704 11 38 12.88 +03 16 26.3 118 K01E16C C2001 03 16.90980 11 38 13.59 +03 16 44.4 15.6 R 118 K01E16C C2001 03 16.95137 11 38 27.56 +03 21 45.7 952 K01E16C C2001 03 16.95245 11 38 27.84 +03 21 53.3 952 K01E16C C2001 03 16.95359 11 38 28.12 +03 22 01.0 952 K01E16C C2001 03 16.95958 11 38 29.64 +03 22 41.0 952 K01E16C C2001 03 16.96200 11 38 30.21 +03 22 57.2 952 K01E16C C2001 03 16.96626 11 38 31.28 +03 23 26.1 952 K01E16C C2001 03 17.12514 11 39 20.04 +03 45 05.9 15.3 V 859 K01E16C C2001 03 17.12678 11 39 20.48 +03 45 16.5 15.4 V 859 K01E16C C2001 03 17.12840 11 39 20.85 +03 45 28.0 15.4 V 859 K01E16C C2001 03 17.13351 11 39 30.48 +03 42 05.6 15.2 V 726 K01E16C C2001 03 17.13464 11 39 22.43 +03 46 12.5 15.3 V 859 K01E16C C2001 03 17.13631 11 39 22.82 +03 46 23.8 15.3 V 859 K01E16C C2001 03 17.13698 11 39 31.51 +03 42 30.0 15.2 V 726 K01E16C C2001 03 17.14045 11 39 32.50 +03 42 54.1 15.2 V 726 K01E16C C2001 03 17.14392 11 39 33.52 +03 43 18.2 15.2 V 726 K01E16C C2001 03 17.14740 11 39 34.49 +03 43 43.7 15.1 V 726 K01E16C C2001 03 17.15087 11 39 35.50 +03 44 08.0 15.2 V 726 K01E16C C2001 03 17.15650 11 39 37.11 +03 44 47.7 15.3 V 726 K01E16C C2001 03 17.15998 11 39 38.14 +03 45 12.0 15.3 V 726 K01E16C C2001 03 17.16345 11 39 39.07 +03 45 37.4 15.4 V 726 K01E16C C2001 03 17.16657 11 39 40.81 +03 46 22.5 14.2 649 K01E16C C2001 03 17.16692 11 39 40.06 +03 46 01.4 15.3 V 726 K01E16C C2001 03 17.16823 11 39 41.29 +03 46 34.4 14.7 649 K01E16C C2001 03 17.17039 11 39 41.04 +03 46 26.4 15.4 V 726 K01E16C C2001 03 17.17089 11 39 42.03 +03 46 52.6 14.2 649 K01E16C C2001 03 17.17350 11 39 42.79 +03 47 10.5 14.6 649 K01E16C C2001 03 17.17387 11 39 42.05 +03 46 51.5 15.5 V 726 K01E16C C2001 03 17.27283 11 40 14.91 +03 59 21.5 670 K01E16C 4C2001 03 17.29889 11 40 21.77 +04 02 34.6 673 K01E16C 4C2001 03 17.30044 11 40 22.17 +04 02 45.9 673 K01E16C C2001 03 17.34726 11 40 35.23 +04 08 30.9 670 K01E16C C2001 03 17.41547 11 40 54.50 +04 17 02.3 670 K01E16C C2001 03 17.91685 11 44 22.56 +05 25 05.7 15.7 R 165 K01E16C C2001 03 17.92026 11 44 23.75 +05 25 35.9 15.6 R 165 K01E16C C2001 03 17.92361 11 44 24.89 +05 26 05.6 15.6 R 165 K01E16C C2001 03 17.92480 11 44 25.35 +05 26 16.3 165 K01E16C C2001 03 17.93591 11 44 29.54 +05 27 57.6 15.4 R 946 K01E16C C2001 03 17.93685 11 44 29.88 +05 28 05.8 15.3 R 946 K01E16C C2001 03 17.94143 11 44 31.47 +05 28 47.1 946 K01E16C C2001 03 18.14505 11 46 05.76 +06 00 02.1 16.0 R 649 K01E16C C2001 03 18.14789 11 46 06.85 +06 00 28.9 16.0 R 649 K01E16C C2001 03 18.15130 11 46 08.21 +06 01 01.8 15.9 R 649 K01E16C C2001 03 18.15530 11 46 13.24 +06 02 00.7 15.2 R 854 K01E16C C2001 03 18.15625 11 46 13.64 +06 02 09.8 15.2 R 854 K01E16C C2001 03 18.15721 11 46 14.00 +06 02 19.3 15.2 R 854 K01E16C 4C2001 03 18.18813 11 46 27.25 +06 07 10.6 673 K01E16C C2001 03 18.18934 11 46 22.23 +06 06 41.5 15.9 V 726 K01E16C C2001 03 18.19108 11 46 22.93 +06 06 58.0 16.0 V 726 K01E16C C2001 03 18.19281 11 46 23.59 +06 07 15.0 15.8 V 726 K01E16C 4C2001 03 18.19369 11 46 29.45 +06 08 04.0 673 K01E16C C2001 03 18.19455 11 46 24.30 +06 07 31.6 15.9 V 726 K01E16C C2001 03 18.19629 11 46 24.99 +06 07 49.4 16.0 V 726 K01E16C C2001 03 18.19775 11 46 25.57 +06 08 02.6 15.8 V 726 K01E16C C2001 03 18.21985 11 46 33.73 +06 11 45.4 750 K01E16C C2001 03 18.23251 11 46 38.67 +06 13 47.6 750 K01E16C C2001 03 18.23668 11 46 40.35 +06 14 29.3 750 K01E16C C2001 03 18.24004 11 46 41.59 +06 15 01.7 750 K01E16C C2001 03 18.24426 11 46 43.31 +06 15 41.5 750 K01E16C C2001 03 18.25259 11 46 46.57 +06 17 04.9 750 K01E16C C2001 03 18.25757 11 46 48.51 +06 17 54.5 750 K01E16C C2001 03 18.26818 11 46 52.73 +06 19 39.2 750 K01E16C C2001 03 18.37394 11 47 51.14 +06 38 57.9 17.0 608 K01E16C C2001 03 18.38496 11 47 55.51 +06 40 52.0 16.9 608 K01E16C C2001 03 18.39601 11 47 59.86 +06 42 46.5 16.9 608 K01E16C C2001 03 18.60039 11 49 41.99 +07 18 04.0 349 K01E16C C2001 03 18.60125 11 49 42.32 +07 18 13.3 349 K01E16C C2001 03 18.60231 11 49 42.77 +07 18 26.3 349 K01E16C C2001 03 18.60312 11 49 43.13 +07 18 33.6 349 K01E16C C2001 03 18.60392 11 49 43.50 +07 18 43.3 15.6 V 349 K01E16C C2001 03 18.81075 11 51 46.99 +07 57 04.1 557 K01E16C C2001 03 18.81184 11 51 47.57 +07 57 16.8 557 K01E16C C2001 03 18.81238 11 51 47.85 +07 57 23.2 557 K01E16C C2001 03 18.81347 11 51 48.44 +07 57 36.1 557 Observer details: 046 Klet. Observers J. Ticha, M. Tichy. 0.57-m f/5.2 reflector + CCD. 118 Modra. Observers A. Galad, J. Toth. 0.6-m f/5.5 reflector + CCD. 165 Piera Observatory, Barcelona. Observer J. Guarro. 0.40-m f/2 Schmidt + CCD. 322 Perth Observatory, Bickley-MCT. Observer J. Biggs. 0.25-m f/4.5 reflector + CCD. 349 Ageo. Observer K. Kadota. 0.18-m f/5.5 reflector + CCD. 428 Reedy Creek. Observer J. Broughton. 0.25-m f/6.3 Schmidt-Cassegrain + CCD. 557 Ondrejov. Observer L. Sarounova. 0.65-m f/3.6 reflector + CCD. 608 Haleakala-NEAT/MSSS. Observers E. F. Helin, S. Pravdo, K. Lawrence, P. Kervin, R. Maeda, M. Skinner. 1.2-m reflector + CCD. 649 Powell Observatory, Louisburg. Observers R. Fredrick, D. Young, K. Smalley. 0.75-m reflector + CCD. 670 Camarillo. Observer J. E. Rogers. 0.30-m f/6.7 Helin Telescope + CCD. 673 Table Mountain Observatory, Wrightwood. Observers D. Esqueda, A. Esqueda, T. Ha. Measurer M. Hicks. 0.6-m reflector + CCD. 726 Brainerd. Observer J. Wentworth. 0.28-m Schmidt-Cassegrain + CCD. 750 Hobbs Observatory, Fall Creek. Observer R. Elliott. 0.3-m f/3.3 reflector + CCD. 844 Los Molinos. Observer F. Artigue. 0.35-m f/6.4 reflector + CCD. 854 Sabino Canyon Observatory, Tucson. Observer J. E. McGaha. 0.30-m f/6.1 Schmidt-Cassegrain + CCD. 859 Wykrota Observatory-CEAMIG. Observers C. Jacques, A. Campos, L. Duczmal, C. Magno. 0.3-m f/3.3 Schmidt-Cassegrain + CCD. 946 Ametlla de Mar. Observer J. Nomen. 0.40-m f/2.0 Schmidt + CCD. 952 Marxuquera. Observer J. J. Gomez. 0.25-m f/3.3 Schmidt-Cassegrain + CCD. Orbital elements: 2001 EC16 Epoch 2001 Mar. 12.0 TT = JDT 2451980.5 Williams M 322.35048 (2000.0) P Q n 0.63025872 Peri. 70.02029 -0.40881323 +0.91259789 a 1.3472767 Node 175.83442 -0.86543920 -0.38556012 e 0.3647809 Incl. 4.79255 -0.28963206 -0.13604588 P 1.56 H 22.3 G 0.15 From 111 observations 2001 Mar. 15-18. Ephemeris: 2001 EC16 a,e,i = 1.35, 0.36, 5 q = 0.8558 Date TT R. A. (2000) Decl. Delta r Elong. Phase V 2001 03 12 11 23.10 -01 59.9 0.070 1.063 174.4 5.2 17.1 2001 03 13 11 25.07 -01 18.5 0.064 1.058 175.3 4.4 16.8 2001 03 14 11 27.44 -00 28.4 0.058 1.052 176.3 3.5 16.6 2001 03 15 11 30.35 +00 33.2 0.052 1.047 177.2 2.7 16.3 2001 03 16 11 33.98 +01 50.3 0.047 1.041 177.7 2.2 16.0 2001 03 17 11 38.66 +03 29.2 0.041 1.036 177.1 2.8 15.7 2001 03 18 11 44.86 +05 39.8 0.035 1.030 175.1 4.7 15.5 2001 03 19 11 53.48 +08 39.0 0.030 1.025 172.0 7.8 15.3 2001 03 20 12 06.19 +12 56.3 0.024 1.020 167.1 12.6 15.0 2001 03 21 12 26.59 +19 25.6 0.019 1.014 159.5 20.2 14.8 2001 03 22 13 03.70 +29 36.5 0.015 1.009 146.8 32.8 14.6 2001 03 23 14 23.25 +44 14.1 0.012 1.004 125.8 53.6 14.7 2001 03 24 17 09.82 +54 34.5 0.012 0.999 97.9 81.5 15.5 2001 03 25 19 48.68 +49 07.5 0.014 0.994 73.7 105.5 16.9 2001 03 26 21 02.42 +40 02.6 0.018 0.988 58.5 120.6 18.4 2001 03 27 21 37.38 +33 22.1 0.022 0.983 49.5 129.5 19.7 2001 03 28 21 56.93 +28 48.9 0.028 0.979 44.1 134.8 20.7 2001 03 29 22 09.30 +25 37.2 0.033 0.974 40.6 138.1 21.4 2001 03 30 22 17.82 +23 17.0 0.039 0.969 38.3 140.2 22.0 2001 03 31 22 24.07 +21 30.5 0.044 0.964 36.9 141.6 22.5 2001 04 01 22 28.88 +20 07.1 0.050 0.959 35.9 142.4 22.9 Gareth V. Williams (C) Copyright 2001 MPC M.P.E.C. 2001-F07


Enter an MPEC number in one of the following forms:
- 1997-B01 (the full form)
- J97B01 (the packed version of the full form)
- B01 (the abbreviated form)